Date,TemperatureHighF,TemperatureAvgF,TemperatureLowF,DewpointHighF,DewpointAvgF,DewpointLowF,HumidityHigh,HumidityAvg,HumidityLow,PressureMaxIn,PressureMinIn,WindSpeedMaxMPH,WindSpeedAvgMPH,GustSpeedMaxMPH,PrecipitationSumIn
2013-1-1,38.6,34.9,31.6,30.4,28.3,25.5,85,77,67,30.01,29.89,14,1,14,0.14
2013-1-2,31.6,27.6,23.4,27.5,19.6,13.4,85,72,58,30.22,29.98,9,0,9,0.00
2013-1-3,32.7,26.8,21.2,22.7,17.1,12.2,76,67,54,30.24,30.13,20,0,20,0.00
2013-1-4,33.4,28.9,26.6,24.0,20.9,19.1,76,72,66,30.23,30.16,23,2,23,0.01
2013-1-5,39.0,32.0,24.5,25.6,21.5,18.3,83,65,48,30.36,30.13,16,0,16,0.02
2013-1-6,38.7,35.1,33.9,30.1,26.0,22.7,81,69,61,30.16,29.99,12,0,12,0.12
2013-1-7,35.1,31.9,28.1,29.9,25.7,23.2,86,78,69,30.44,30.15,14,0,14,0.01
2013-1-8,46.6,37.2,29.0,30.8,27.5,24.2,86,68,49,30.40,30.29,14,1,14,0.02
2013-1-9,53.9,43.3,34.8,45.5,35.5,27.4,83,74,64,30.41,30.21,16,1,16,0.00
2013-1-10,49.7,41.5,36.5,34.2,30.4,26.7,74,65,47,30.58,30.39,10,0,10,0.00
2013-1-11,47.3,42.9,38.3,45.1,36.4,29.4,94,79,62,30.40,30.04,14,0,14,0.13
2013-1-12,63.2,48.9,36.9,55.9,46.1,35.3,100,90,74,30.12,29.99,8,0,8,0.00
2013-1-13,67.0,58.2,48.6,56.0,52.4,46.6,96,82,63,30.00,29.84,15,1,15,0.00
2013-1-14,61.8,46.9,33.3,56.5,42.2,30.9,94,84,73,30.29,29.84,21,2,21,0.44
2013-1-15,34.8,33.4,31.7,33.5,32.0,30.4,95,94,92,30.33,30.10,9,0,9,0.86
2013-1-16,41.5,33.9,31.5,41.0,32.8,30.2,100,96,95,30.11,29.77,20,1,20,0.38
2013-1-17,37.3,34.1,32.0,36.3,29.1,25.2,96,82,72,30.12,29.98,12,1,12,0.00
2013-1-18,33.7,29.6,23.1,25.4,17.1,11.8,78,60,44,30.49,30.11,21,1,21,0.00
2013-1-19,51.4,41.8,33.4,27.5,23.1,17.3,63,48,34,30.32,29.84,19,2,23,0.00
2013-1-20,46.9,40.0,29.0,31.3,21.8,10.6,63,48,32,30.04,29.78,26,2,26,0.00
2013-1-21,38.7,29.1,19.7,17.6,13.8,9.1,69,53,37,30.04,29.78,27,1,27,0.00
2013-1-22,19.5,12.3,8.0,9.7,-0.7,-3.5,65,55,47,30.31,29.97,20,1,20,0.00
2013-1-23,19.9,14.5,8.7,12.0,1.9,-1.5,82,58,43,30.36,30.10,15,1,15,0.00
2013-1-24,19.5,15.2,11.0,12.3,8.1,2.5,87,74,55,30.58,30.06,18,0,18,0.00
2013-1-25,19.7,14.5,10.5,16.1,8.4,1.7,90,76,67,30.55,30.06,7,0,7,0.00
2013-1-26,30.5,25.3,18.9,24.5,20.3,16.5,92,81,75,30.45,30.06,12,0,12,0.03
2013-1-27,33.5,26.0,19.2,22.1,17.4,12.5,78,70,58,30.58,30.40,9,0,9,0.05
2013-1-28,51.4,38.8,27.5,48.4,35.8,21.0,94,89,75,30.42,30.04,15,1,15,0.30
2013-1-29,66.0,56.8,49.8,55.8,51.2,48.0,96,82,68,30.07,29.84,16,1,16,0.02
2013-1-30,69.3,58.3,51.4,59.9,53.4,48.1,95,84,70,29.84,29.19,29,2,29,1.51
2013-1-31,51.2,31.8,24.5,49.8,25.2,15.1,95,77,65,29.87,29.13,29,3,29,0.06
2013-2-1,25.0,16.7,9.3,20.6,9.2,1.9,87,72,61,30.38,29.79,20,1,20,0.00
2013-2-2,30.4,14.0,9.0,22.0,6.8,2.1,86,73,54,30.38,29.96,10,0,10,0.01
2013-2-3,31.7,26.6,21.4,24.3,20.9,13.0,90,79,67,29.99,29.77,20,1,20,0.01
2013-2-4,35.7,26.4,18.5,29.6,19.0,11.3,93,74,55,30.06,29.84,19,1,19,0.00
2013-2-5,37.9,35.2,31.5,35.7,32.8,29.7,94,91,85,29.92,29.80,14,0,14,0.15
2013-2-6,35.4,32.5,28.2,32.5,27.7,23.5,92,82,75,30.33,29.90,14,1,14,0.01
2013-2-7,36.2,30.5,25.7,30.8,25.9,22.5,89,83,77,30.38,30.12,19,1,19,0.00
2013-2-8,37.8,33.3,26.9,35.4,28.6,20.0,92,83,71,30.12,29.78,26,1,26,0.00
2013-2-9,33.2,27.8,24.8,20.4,17.2,13.6,77,64,50,30.39,30.07,21,1,21,0.00
2013-2-10,43.8,32.4,21.8,30.7,18.9,12.8,79,58,44,30.43,30.10,16,1,16,0.02
2013-2-11,62.7,48.2,36.6,49.2,36.7,26.2,92,67,37,30.11,29.67,25,3,25,0.03
2013-2-12,50.1,41.8,35.5,28.6,25.3,22.0,63,52,37,29.97,29.82,24,1,24,0.00
2013-2-13,40.2,35.0,31.5,31.2,26.3,20.4,94,72,51,29.90,29.63,5,0,5,0.04
2013-2-14,42.4,34.0,26.2,33.4,28.9,23.9,94,82,62,29.99,29.79,10,0,10,0.17
2013-2-15,48.4,38.2,32.6,36.0,31.5,28.0,91,77,59,30.01,29.91,16,0,16,0.02
2013-2-16,32.8,28.4,21.1,28.1,19.9,11.8,86,70,58,29.98,29.88,13,1,13,0.00
2013-2-17,23.2,19.3,16.1,15.6,10.1,6.6,82,67,54,30.27,29.89,21,2,21,0.00
2013-2-18,43.6,27.8,13.5,24.7,13.3,5.0,70,56,33,30.37,30.02,15,0,15,0.00
2013-2-19,48.2,38.3,29.6,38.0,28.8,20.2,87,69,54,30.03,29.65,27,3,27,0.05
2013-2-20,30.0,24.9,18.6,20.6,14.3,9.5,70,64,55,30.21,29.84,26,3,26,0.01
2013-2-21,31.2,23.2,17.9,17.7,13.6,9.1,74,66,56,30.35,30.17,16,1,16,0.00
2013-2-22,33.2,28.5,22.6,29.9,23.2,15.6,90,80,63,30.35,30.09,14,1,14,0.03
2013-2-23,45.8,31.9,27.7,36.3,28.2,25.2,92,86,68,30.10,29.79,8,0,8,0.02
2013-2-24,43.9,34.8,24.3,34.4,26.5,16.3,91,73,49,30.12,29.78,16,1,16,0.00
2013-2-25,39.9,31.6,23.9,24.1,20.3,16.3,78,63,48,30.22,30.10,19,1,19,0.00
2013-2-26,35.2,32.8,30.5,33.7,26.3,19.3,94,78,61,30.15,29.65,20,1,20,0.68
2013-2-27,45.2,36.5,32.1,38.7,33.2,30.6,96,88,70,29.70,29.60,18,1,18,0.08
2013-2-28,36.5,33.8,31.4,31.9,27.7,25.7,87,78,69,29.77,29.63,20,1,20,0.00
2013-3-1,33.7,31.8,27.2,27.4,25.0,20.3,83,76,67,29.91,29.77,12,1,12,0.00
2013-3-2,30.1,26.8,24.2,21.3,19.2,17.5,80,73,65,29.91,29.83,13,1,13,0.00
2013-3-3,30.6,26.5,23.4,18.6,17.4,15.4,75,69,58,29.98,29.86,20,1,20,0.00
2013-3-4,35.7,27.7,20.3,19.2,15.6,11.2,75,61,45,30.09,29.98,15,1,15,0.00
2013-3-5,48.3,37.1,28.9,30.7,21.8,17.2,95,55,37,30.07,29.69,22,2,22,0.00
2013-3-6,33.2,31.0,28.4,31.7,29.0,26.5,94,92,85,30.08,29.65,18,3,18,0.01
2013-3-7,36.6,33.7,32.0,30.1,28.3,26.3,86,80,70,30.22,30.07,14,1,14,0.36
2013-3-8,36.4,31.0,28.4,28.4,25.0,23.1,85,78,69,30.38,30.20,16,2,16,0.07
2013-3-9,48.4,36.2,25.2,31.4,25.5,18.6,90,67,35,30.41,30.25,8,0,8,0.23
2013-3-10,58.0,45.3,33.0,33.8,29.1,22.7,75,54,37,30.26,30.07,20,2,20,0.00
2013-3-11,55.5,49.8,45.0,47.7,33.1,27.9,80,53,41,30.08,29.73,24,2,24,0.00
2013-3-12,54.2,44.0,35.4,49.7,38.8,27.8,94,82,68,29.98,29.67,19,2,19,0.31
2013-3-13,42.4,32.7,27.1,29.8,24.8,18.0,85,73,50,30.09,29.90,25,2,25,0.01
2013-3-14,38.4,30.3,23.9,21.6,18.2,14.8,72,61,50,30.21,30.08,27,2,27,0.00
2013-3-15,52.8,40.0,28.5,36.2,27.0,17.4,70,60,48,30.12,29.79,16,1,16,0.00
2013-3-16,54.6,45.0,40.4,46.6,39.4,33.9,92,81,70,29.86,29.58,13,1,13,0.02
2013-3-17,42.1,35.5,31.5,38.9,30.0,25.5,92,80,73,30.19,29.85,15,3,15,0.00
2013-3-18,33.8,30.6,28.3,32.0,28.3,26.2,93,91,81,30.21,29.82,23,1,23,0.11
2013-3-19,47.6,37.6,31.1,34.8,27.0,15.6,95,69,39,29.94,29.73,25,3,25,0.42
2013-3-20,47.1,34.9,27.4,28.6,19.9,13.8,89,56,35,29.98,29.76,25,2,25,0.00
2013-3-21,28.8,24.2,21.0,23.4,14.9,10.2,83,68,51,29.94,29.78,20,1,20,0.01
2013-3-22,40.1,29.7,21.2,21.1,16.9,12.1,72,60,44,30.01,29.91,10,1,15,0.00
2013-3-23,48.2,34.7,27.0,24.5,19.9,16.8,69,56,34,30.03,29.91,12,1,16,0.00
2013-3-24,38.4,30.9,28.0,27.7,23.4,19.8,94,75,50,29.95,29.56,10,0,10,0.00
2013-3-25,37.4,31.4,27.9,34.9,29.2,26.4,95,91,83,29.70,29.50,5,0,5,0.22
2013-3-26,38.9,32.1,30.4,30.4,28.4,25.6,92,86,64,30.04,29.70,14,1,14,0.33
2013-3-27,36.7,33.0,29.8,29.1,27.1,24.7,84,79,69,30.12,30.03,15,1,15,0.06
2013-3-28,40.1,35.0,31.8,30.7,28.0,25.9,83,75,65,30.25,30.10,8,1,16,0.03
2013-3-29,48.9,38.3,34.6,35.1,29.4,25.5,78,71,48,30.26,30.12,14,0,14,0.01
2013-3-30,54.6,41.2,33.8,33.0,27.4,23.3,75,59,32,30.21,30.02,12,0,12,0.00
2013-3-31,45.9,41.9,37.3,44.7,36.3,23.3,96,83,43,30.02,29.71,13,0,13,0.35
2013-4-1,50.2,41.7,34.4,42.3,34.4,18.2,96,76,49,29.97,29.72,22,2,22,0.00
2013-4-2,42.4,34.5,28.5,20.8,16.9,12.0,62,49,36,30.17,29.97,18,1,21,0.00
2013-4-3,46.2,31.5,27.4,20.6,16.6,12.0,66,55,31,30.36,30.17,20,1,20,0.00
2013-4-4,48.2,35.2,24.9,30.8,17.3,10.0,74,49,32,30.37,30.00,16,1,16,0.00
2013-4-5,60.7,46.4,36.3,34.2,30.5,23.7,88,57,33,30.06,29.84,19,1,19,0.00
2013-4-6,56.2,43.1,29.0,24.9,21.5,16.0,71,45,23,30.28,30.05,19,2,20,0.00
2013-4-7,72.2,57.1,47.5,46.5,36.3,22.7,57,46,35,30.11,29.86,27,2,27,0.00
2013-4-8,76.8,64.8,53.1,49.5,45.7,42.3,68,51,35,30.02,29.84,15,1,15,0.00
2013-4-9,81.3,65.7,60.4,56.1,51.0,47.8,67,60,40,30.03,29.85,13,0,14,0.00
2013-4-10,88.3,74.6,64.6,60.0,54.6,49.2,67,51,37,29.90,29.72,24,1,24,0.00
2013-4-11,82.4,70.2,58.3,58.8,54.7,51.2,80,59,40,29.81,29.56,20,1,20,0.00
2013-4-12,69.9,60.6,47.1,64.5,52.7,35.7,97,77,53,29.77,29.48,19,2,19,1.79
2013-4-13,48.1,45.8,42.6,37.7,35.5,33.4,72,67,61,29.91,29.75,16,2,20,0.00